Time,TemperatureF,DewpointF,PressureIn,WindDirection,WindDirectionDegrees,WindSpeedMPH,WindSpeedGustMPH,Humidity,HourlyPrecipIn,Conditions,Clouds,dailyrainin,SoftwareType,DateUTC
2013-01-31 00:03:00,55.0,53.0,29.42,SSW,201,11.0,-999.0,94,-99.99,,,-99.99,,2013-01-31 05:03:00,
2013-01-31 00:11:00,55.0,53.0,29.42,SSW,201,11.0,-999.0,94,-99.99,,,-99.99,,2013-01-31 05:11:00,
2013-01-31 00:22:00,55.0,53.0,29.41,WSW,243,12.0,-999.0,94,-99.99,,,-99.99,,2013-01-31 05:22:00,
2013-01-31 00:32:00,55.0,53.0,29.41,WSW,243,12.0,-999.0,94,-99.99,,,-99.99,,2013-01-31 05:32:00,
2013-01-31 00:42:00,55.0,53.0,29.40,SW,218,10.0,-999.0,94,-99.99,,,-99.99,,2013-01-31 05:42:00,
2013-01-31 00:52:00,55.0,53.0,29.40,SW,218,10.0,-999.0,94,-99.99,,,-99.99,,2013-01-31 05:52:00,
2013-01-31 01:01:00,55.0,53.0,29.40,SW,218,10.0,-999.0,94,-99.99,,,-99.99,,2013-01-31 06:01:00,
2013-01-31 01:11:00,55.0,53.0,29.40,SW,218,10.0,-999.0,94,-99.99,,,-99.99,,2013-01-31 06:11:00,
2013-01-31 09:03:00,46.0,40.0,29.12,NNW,343,9.0,-999.0,80,-99.99,,,-99.99,,2013-01-31 14:03:00,
2013-01-31 09:11:00,46.0,40.0,29.12,NNW,343,9.0,-999.0,80,-99.99,,,-99.99,,2013-01-31 14:11:00,
2013-01-31 09:22:00,46.0,40.0,29.13,SW,217,7.0,-999.0,78,-99.99,,,-99.99,,2013-01-31 14:22:00,
2013-01-31 09:32:00,46.0,39.0,29.15,NW,325,7.0,-999.0,75,-99.99,,,-99.99,,2013-01-31 14:32:00,
2013-01-31 09:42:00,46.0,39.0,29.15,NW,325,7.0,-999.0,75,-99.99,,,-99.99,,2013-01-31 14:42:00,
2013-01-31 09:52:00,45.0,37.0,29.18,West,269,9.0,-999.0,73,-99.99,,,-99.99,,2013-01-31 14:52:00,
2013-01-31 10:03:00,45.0,35.0,29.19,West,272,11.0,-999.0,69,-99.99,,,-99.99,,2013-01-31 15:03:00,
2013-01-31 10:12:00,45.0,35.0,29.19,West,272,11.0,-999.0,69,-99.99,,,-99.99,,2013-01-31 15:12:00,
2013-01-31 10:23:00,44.0,33.0,29.21,NW,321,8.0,-999.0,65,-99.99,,,-99.99,,2013-01-31 15:23:00,
2013-01-31 10:32:00,44.0,33.0,29.23,NW,318,9.0,-999.0,65,-99.99,,,-99.99,,2013-01-31 15:32:00,
2013-01-31 10:42:00,44.0,33.0,29.23,NW,318,9.0,-999.0,65,-99.99,,,-99.99,,2013-01-31 15:42:00,
2013-01-31 10:52:00,45.0,30.0,29.24,NNE,18,8.0,-999.0,56,-99.99,,,-99.99,,2013-01-31 15:52:00,
2013-01-31 11:03:00,45.0,29.0,29.25,North,359,9.0,-999.0,54,-99.99,,,-99.99,,2013-01-31 16:03:00,
2013-01-31 11:13:00,45.0,29.0,29.25,North,359,9.0,-999.0,54,-99.99,,,-99.99,,2013-01-31 16:13:00,
2013-01-31 11:22:00,45.0,28.0,29.26,SW,226,10.0,-999.0,52,-99.99,,,-99.99,,2013-01-31 16:22:00,
2013-01-31 11:33:00,44.0,29.0,29.27,NW,317,8.0,-999.0,55,-99.99,,,-99.99,,2013-01-31 16:33:00,
2013-01-31 11:42:00,44.0,29.0,29.27,NW,317,8.0,-999.0,55,-99.99,,,-99.99,,2013-01-31 16:42:00,
2013-01-31 11:52:00,42.0,28.0,29.28,NW,320,9.0,-999.0,58,-99.99,,,-99.99,,2013-01-31 16:52:00,
2013-01-31 12:03:00,41.0,27.0,29.29,ENE,68,12.0,-999.0,58,-99.99,,,-99.99,,2013-01-31 17:03:00,
2013-01-31 12:12:00,41.0,27.0,29.29,ENE,68,12.0,-999.0,58,-99.99,,,-99.99,,2013-01-31 17:12:00,
2013-01-31 12:23:00,41.0,28.0,29.30,West,265,10.0,-999.0,59,-99.99,,,-99.99,,2013-01-31 17:23:00,
2013-01-31 12:32:00,43.0,28.0,29.31,NW,324,7.0,-999.0,54,-99.99,,,-99.99,,2013-01-31 17:32:00,
2013-01-31 12:43:00,43.0,28.0,29.31,NW,324,7.0,-999.0,54,-99.99,,,-99.99,,2013-01-31 17:43:00,
2013-01-31 12:53:00,43.0,25.0,29.32,SSW,204,8.0,-999.0,49,-99.99,,,-99.99,,2013-01-31 17:53:00,
2013-01-31 13:03:00,43.0,23.0,29.31,West,280,10.0,-999.0,45,-99.99,,,-99.99,,2013-01-31 18:03:00,
2013-01-31 13:12:00,43.0,23.0,29.33,West,280,7.0,-999.0,45,-99.99,,,-99.99,,2013-01-31 18:12:00,
2013-01-31 13:22:00,43.0,23.0,29.33,West,280,7.0,-999.0,45,-99.99,,,-99.99,,2013-01-31 18:22:00,
2013-01-31 13:32:00,42.0,22.0,29.33,North,11,8.0,-999.0,44,-99.99,,,-99.99,,2013-01-31 18:32:00,
2013-01-31 13:43:00,42.0,22.0,29.33,North,11,8.0,-999.0,44,-99.99,,,-99.99,,2013-01-31 18:43:00,
2013-01-31 13:52:00,42.0,21.0,29.34,WSW,241,10.0,-999.0,43,-99.99,,,-99.99,,2013-01-31 18:52:00,
2013-01-31 14:02:00,41.0,20.0,29.35,NNW,339,7.0,-999.0,42,-99.99,,,-99.99,,2013-01-31 19:02:00,
2013-01-31 14:12:00,41.0,20.0,29.35,NNW,339,7.0,-999.0,42,-99.99,,,-99.99,,2013-01-31 19:12:00,
2013-01-31 14:22:00,42.0,21.0,29.35,WNW,289,8.0,-999.0,42,-99.99,,,-99.99,,2013-01-31 19:22:00,
2013-01-31 14:33:00,41.0,19.0,29.36,NNW,330,8.0,-999.0,41,-99.99,,,-99.99,,2013-01-31 19:33:00,
2013-01-31 14:42:00,41.0,19.0,29.36,NNW,330,8.0,-999.0,41,-99.99,,,-99.99,,2013-01-31 19:42:00,
2013-01-31 14:52:00,40.0,19.0,29.37,SW,231,9.0,-999.0,42,-99.99,,,-99.99,,2013-01-31 19:52:00,
2013-01-31 15:02:00,40.0,18.0,29.38,WNW,291,8.0,-999.0,41,-99.99,,,-99.99,,2013-01-31 20:02:00,
2013-01-31 15:12:00,40.0,18.0,29.38,WNW,291,8.0,-999.0,41,-99.99,,,-99.99,,2013-01-31 20:12:00,
2013-01-31 15:22:00,40.0,19.0,29.40,South,177,8.0,-999.0,42,-99.99,,,-99.99,,2013-01-31 20:22:00,
2013-01-31 15:32:00,40.0,19.0,29.41,NNE,13,7.0,-999.0,42,-99.99,,,-99.99,,2013-01-31 20:32:00,
2013-01-31 15:42:00,39.0,18.0,29.40,West,275,5.0,-999.0,42,-99.99,,,-99.99,,2013-01-31 20:42:00,
2013-01-31 15:52:00,39.0,18.0,29.40,West,275,5.0,-999.0,42,-99.99,,,-99.99,,2013-01-31 20:52:00,
2013-01-31 16:02:00,39.0,18.0,29.41,SW,223,5.0,-999.0,43,-99.99,,,-99.99,,2013-01-31 21:02:00,
2013-01-31 16:12:00,39.0,17.0,29.42,North,349,6.0,-999.0,41,-99.99,,,-99.99,,2013-01-31 21:12:00,
2013-01-31 16:22:00,39.0,17.0,29.42,North,349,6.0,-999.0,41,-99.99,,,-99.99,,2013-01-31 21:22:00,
2013-01-31 16:32:00,38.0,15.0,29.43,NW,316,7.0,-999.0,39,-99.99,,,-99.99,,2013-01-31 21:32:00,
2013-01-31 16:42:00,38.0,15.0,29.43,NW,316,7.0,-999.0,39,-99.99,,,-99.99,,2013-01-31 21:42:00,
2013-01-31 16:52:00,38.0,16.0,29.44,NNE,18,8.0,-999.0,40,-99.99,,,-99.99,,2013-01-31 21:52:00,
2013-01-31 17:03:00,37.0,15.0,29.47,NNW,345,8.0,-999.0,40,-99.99,,,-99.99,,2013-01-31 22:03:00,
2013-01-31 17:11:00,37.0,15.0,29.47,NNW,345,8.0,-999.0,40,-99.99,,,-99.99,,2013-01-31 22:11:00,
2013-01-31 17:22:00,37.0,17.0,29.47,WNW,288,6.0,-999.0,43,-99.99,,,-99.99,,2013-01-31 22:22:00,
2013-01-31 17:33:00,36.0,18.0,29.48,West,262,6.0,-999.0,47,-99.99,,,-99.99,,2013-01-31 22:33:00,
2013-01-31 17:42:00,36.0,18.0,29.48,West,262,6.0,-999.0,47,-99.99,,,-99.99,,2013-01-31 22:42:00,
2013-01-31 17:52:00,35.0,18.0,29.49,WSW,247,8.0,-999.0,49,-99.99,,,-99.99,,2013-01-31 22:52:00,
2013-01-31 18:03:00,34.0,17.0,29.51,WNW,298,8.0,-999.0,50,-99.99,,,-99.99,,2013-01-31 23:03:00,
2013-01-31 18:12:00,34.0,17.0,29.51,WNW,298,8.0,-999.0,50,-99.99,,,-99.99,,2013-01-31 23:12:00,
2013-01-31 18:22:00,33.0,18.0,29.53,SW,220,7.0,-999.0,54,-99.99,,,-99.99,,2013-01-31 23:22:00,
2013-01-31 18:32:00,33.0,19.0,29.54,SSW,205,6.0,-999.0,55,-99.99,,,-99.99,,2013-01-31 23:32:00,
2013-01-31 18:42:00,33.0,19.0,29.54,SSW,205,6.0,-999.0,55,-99.99,,,-99.99,,2013-01-31 23:42:00,
2013-01-31 18:52:00,32.0,19.0,29.55,WNW,297,6.0,-999.0,58,-99.99,,,-99.99,,2013-01-31 23:52:00,
2013-01-31 19:01:00,32.0,19.0,29.56,NNW,341,9.0,-999.0,59,-99.99,,,-99.99,,2013-02-01 00:01:00,
2013-01-31 19:11:00,32.0,19.0,29.56,NNW,341,9.0,-999.0,59,-99.99,,,-99.99,,2013-02-01 00:11:00,
2013-01-31 19:22:00,31.0,18.0,29.58,SW,218,7.0,-999.0,58,-99.99,,,-99.99,,2013-02-01 00:22:00,
2013-01-31 19:32:00,31.0,18.0,29.59,WNW,299,5.0,-999.0,59,-99.99,,,-99.99,,2013-02-01 00:32:00,
2013-01-31 19:42:00,31.0,18.0,29.59,WNW,299,5.0,-999.0,59,-99.99,,,-99.99,,2013-02-01 00:42:00,
2013-01-31 19:52:00,31.0,18.0,29.60,WNW,295,8.0,-999.0,59,-99.99,,,-99.99,,2013-02-01 00:52:00,
2013-01-31 20:01:00,30.0,18.0,29.60,WNW,283,6.0,-999.0,61,-99.99,,,-99.99,,2013-02-01 01:01:00,
2013-01-31 20:11:00,30.0,19.0,29.61,NW,307,2.0,-999.0,62,-99.99,,,-99.99,,2013-02-01 01:11:00,
2013-01-31 20:21:00,30.0,19.0,29.61,NW,307,2.0,-999.0,62,-99.99,,,-99.99,,2013-02-01 01:21:00,
2013-01-31 20:32:00,29.0,15.0,29.61,NW,310,4.0,-999.0,55,-99.99,,,-99.99,,2013-02-01 01:32:00,
2013-01-31 20:42:00,29.0,15.0,29.61,NW,310,4.0,-999.0,55,-99.99,,,-99.99,,2013-02-01 01:42:00,
2013-01-31 20:52:00,29.0,13.0,29.62,WSW,237,5.0,-999.0,50,-99.99,,,-99.99,,2013-02-01 01:52:00,
2013-01-31 21:02:00,29.0,12.0,29.62,SW,236,4.0,-999.0,49,-99.99,,,-99.99,,2013-02-01 02:02:00,
2013-01-31 21:11:00,29.0,12.0,29.62,SW,236,4.0,-999.0,49,-99.99,,,-99.99,,2013-02-01 02:11:00,
2013-01-31 21:21:00,29.0,12.0,29.63,WSW,239,4.0,-999.0,49,-99.99,,,-99.99,,2013-02-01 02:21:00,
2013-01-31 21:32:00,29.0,12.0,29.63,NNW,347,6.0,-999.0,49,-99.99,,,-99.99,,2013-02-01 02:32:00,
2013-01-31 21:42:00,29.0,12.0,29.63,NNW,347,6.0,-999.0,49,-99.99,,,-99.99,,2013-02-01 02:42:00,
2013-01-31 21:52:00,29.0,12.0,29.64,NNW,327,5.0,-999.0,49,-99.99,,,-99.99,,2013-02-01 02:52:00,
2013-01-31 22:02:00,28.0,12.0,29.65,South,191,5.0,-999.0,50,-99.99,,,-99.99,,2013-02-01 03:02:00,
2013-01-31 22:12:00,28.0,12.0,29.65,South,191,5.0,-999.0,50,-99.99,,,-99.99,,2013-02-01 03:12:00,
2013-01-31 22:21:00,28.0,12.0,29.65,WSW,239,4.0,-999.0,50,-99.99,,,-99.99,,2013-02-01 03:21:00,
2013-01-31 22:33:00,28.0,12.0,29.65,WSW,241,3.0,-999.0,51,-99.99,,,-99.99,,2013-02-01 03:33:00,
2013-01-31 22:42:00,28.0,12.0,29.65,WSW,241,3.0,-999.0,51,-99.99,,,-99.99,,2013-02-01 03:42:00,
2013-01-31 22:52:00,28.0,13.0,29.65,WNW,287,3.0,-999.0,53,-99.99,,,-99.99,,2013-02-01 03:52:00,
2013-01-31 23:02:00,28.0,14.0,29.65,West,273,3.0,-999.0,55,-99.99,,,-99.99,,2013-02-01 04:02:00,
2013-01-31 23:11:00,28.0,14.0,29.65,West,273,3.0,-999.0,55,-99.99,,,-99.99,,2013-02-01 04:11:00,
2013-01-31 23:21:00,28.0,14.0,29.65,West,273,3.0,-999.0,55,-99.99,,,-99.99,,2013-02-01 04:21:00,
2013-01-31 23:32:00,28.0,16.0,29.65,NW,310,3.0,-999.0,60,-99.99,,,-99.99,,2013-02-01 04:32:00,
2013-01-31 23:42:00,28.0,16.0,29.65,NW,310,3.0,-999.0,60,-99.99,,,-99.99,,2013-02-01 04:42:00,
2013-01-31 23:52:00,27.0,16.0,29.67,WNW,294,5.0,-999.0,62,-99.99,,,-99.99,,2013-02-01 04:52:00,